GFSCGP_sfc_wetblb_021.txt.gz
Wetbulb
38.76 36.93 34.35 36.59 36.29 34.47 33.79 32.55 32.59 32.94 34.90 34.16 33.11 35.11 38.92 41.20 34.66 36.06 35.11 32.86 33.17 33.85 36.55 34.71 32.61 32.30 31.80 31.75 31.86 32.56 32.77 33.30 33.04 32.08 31.46 30.54 30.40 30.78 30.57 30.78 30.66 30.86 30.42 29.95
36.11 34.94 37.48 37.70 35.80 34.78 32.41 31.31 30.78 33.12 32.88 33.04 32.29 32.85 37.01 38.61 40.26 40.15 38.52 35.32 33.96 34.63 32.87 31.68 31.72 30.93 30.82 31.12 31.61 31.46 32.08 32.17 32.30 31.61 31.03 30.98 30.52 30.29 30.02 30.24 29.92 29.71 29.10 29.01
34.00 35.45 37.11 37.19 33.32 32.86 31.35 30.32 30.07 32.11 31.10 31.06 28.94 27.78 30.60 34.83 36.26 37.48 38.24 37.31 35.43 35.04 33.29 31.21 30.40 30.36 30.55 30.45 30.79 31.23 31.52 31.76 32.00 31.74 30.71 30.10 29.59 29.09 28.48 28.54 28.54 28.82 28.51 28.22
35.33 35.82 36.25 33.49 34.14 33.87 30.54 32.44 31.43 30.25 28.63 25.86 29.67 27.46 29.38 33.51 36.05 36.83 38.22 34.46 35.85 34.08 34.78 32.66 31.08 30.35 30.25 30.71 31.69 31.83 31.43 31.17 31.58 30.80 29.48 28.02 27.44 26.35 27.42 27.40 27.77 27.66 27.67 27.03
34.50 33.03 32.40 32.74 33.93 34.63 32.49 31.37 30.10 29.09 27.19 23.35 25.38 22.83 29.01 28.55 32.27 37.01 38.65 35.41 34.60 34.14 33.94 32.46 31.29 31.55 31.33 31.41 30.24 31.21 30.87 31.05 31.28 30.65 29.52 27.85 26.17 26.23 26.77 26.13 25.24 25.37 25.74 26.14
34.56 33.93 34.43 34.69 31.97 31.54 32.39 30.40 28.46 24.62 23.42 19.14 27.84 26.83 26.11 28.24 32.18 34.91 36.67 36.09 34.88 32.21 31.52 32.61 32.26 32.16 30.92 31.30 30.24 29.65 29.37 29.46 30.14 29.14 28.17 26.90 25.58 24.92 24.21 24.33 23.45 23.81 24.44 24.73
32.11 31.44 31.52 33.46 31.60 31.52 30.21 29.06 24.14 21.46 19.02 23.74 22.75 21.66 31.79 32.99 33.84 35.95 38.84 36.92 33.63 31.54 29.51 29.61 29.36 29.63 29.88 29.19 29.31 28.87 28.40 28.30 28.22 27.54 26.79 26.22 25.28 24.19 23.39 23.05 22.56 22.04 22.41 22.72
29.59 29.76 30.98 32.91 33.49 31.35 28.36 30.13 24.74 16.78 18.56 27.29 21.16 21.13 31.44 33.12 38.06 34.93 33.65 32.80 30.46 30.24 28.25 28.61 29.42 29.53 30.09 29.54 29.13 29.13 27.75 27.71 26.79 26.34 26.02 25.38 24.43 23.76 22.90 22.56 21.95 21.47 21.17 21.81
29.05 29.09 28.97 29.72 30.10 31.34 27.65 26.39 30.19 23.73 6.72 15.16 27.01 28.42 31.39 32.12 31.91 30.90 31.78 28.89 29.58 29.87 27.45 27.83 28.47 29.48 29.52 29.25 28.91 28.16 27.59 27.08 25.82 25.39 24.80 23.63 22.98 22.11 21.48 21.37 21.24 20.89 21.01 21.61
33.61 30.27 27.97 27.83 28.33 26.54 28.53 29.83 24.94 23.69 17.43 12.22 27.17 28.81 31.26 32.09 33.48 34.04 32.88 32.22 30.74 30.02 27.04 27.04 27.80 28.52 29.05 29.32 28.06 27.25 27.31 25.75 25.04 24.43 23.25 22.99 21.94 21.35 20.77 20.46 19.78 19.82 20.18 20.35
35.15 34.15 29.04 27.13 26.35 26.34 24.90 24.35 24.74 26.60 23.46 18.54 20.96 28.82 30.80 33.74 34.12 34.84 34.82 32.34 31.41 30.20 27.51 26.64 27.22 28.14 28.20 28.01 26.78 25.92 24.77 23.71 23.04 22.95 21.87 20.75 20.31 20.05 19.78 19.25 19.12 18.87 19.24 19.23
34.06 32.91 29.83 30.80 24.46 25.83 26.44 28.16 28.83 24.52 21.23 18.62 19.18 27.44 34.67 33.96 34.25 33.04 34.32 31.93 31.25 29.95 27.83 26.51 26.64 26.58 26.71 26.85 24.66 24.04 22.96 22.68 22.17 21.16 19.97 19.11 18.98 18.55 17.92 17.54 17.83 18.43 17.74 18.51
34.35 30.09 25.40 27.35 24.90 24.79 25.25 25.82 27.34 26.32 25.01 24.78 20.20 28.08 35.06 31.28 32.43 32.71 32.82 30.02 30.54 29.29 26.66 25.00 25.06 25.57 26.57 25.34 23.68 22.17 21.60 20.78 19.98 18.94 17.96 17.30 16.92 16.46 16.30 16.45 17.03 17.26 16.92 16.66
39.36 31.58 30.44 27.84 30.57 27.10 23.47 24.11 28.01 28.93 26.54 27.12 27.01 30.57 35.44 37.70 36.29 34.99 31.93 28.92 30.29 29.02 27.90 24.89 24.75 25.59 26.86 24.47 22.54 20.43 18.39 17.80 17.63 17.00 16.16 15.30 15.35 15.54 15.49 15.82 15.81 15.43 15.52 14.43
35.08 30.23 32.37 33.64 34.51 30.68 27.74 27.89 27.54 25.28 28.57 26.26 30.78 30.42 34.58 37.71 38.10 39.08 39.83 39.72 36.79 27.46 25.34 24.76 24.73 25.25 24.14 22.71 20.82 18.99 17.51 16.95 16.19 15.05 14.48 14.19 14.92 15.07 14.84 14.12 14.44 14.15 13.81 13.36
30.61 29.95 31.80 29.33 32.63 32.36 29.61 30.69 32.32 31.10 30.21 29.52 30.63 29.94 37.57 39.55 39.93 39.08 39.43 39.38 37.61 34.63 27.83 26.46 25.81 25.12 23.20 22.89 19.41 19.32 15.97 14.49 15.04 13.51 13.69 14.11 13.45 12.99 12.59 12.65 12.14 11.48 11.50 11.30
27.65 27.23 24.20 25.39 30.54 28.13 22.79 29.22 31.92 32.94 34.69 33.83 29.13 34.14 38.39 37.09 37.10 37.83 38.32 38.48 37.84 37.40 28.67 26.02 25.60 24.84 23.89 22.13 20.35 15.70 14.25 14.18 13.21 13.44 12.83 12.01 11.16 10.37 10.26 9.86 9.31 9.08 8.99 9.28
30.40 26.86 28.72 25.22 26.50 18.34 29.76 34.81 33.80 31.81 34.21 35.61 35.24 36.66 37.97 38.24 39.61 40.06 38.66 38.64 37.72 32.61 27.94 25.98 25.04 23.87 21.98 18.67 15.97 13.92 13.30 13.20 12.78 11.73 10.73 9.69 8.85 8.03 7.88 7.22 6.94 7.47 8.07 8.69
35.37 31.89 27.32 23.94 24.06 27.76 29.89 32.48 29.33 28.07 30.32 35.87 35.68 36.72 37.83 38.96 34.07 35.70 32.06 33.48 35.97 31.60 26.86 24.58 24.12 19.87 17.07 15.26 13.85 12.65 12.03 11.63 10.28 9.12 8.58 7.81 7.34 5.82 5.11 3.66 5.24 6.51 7.67 6.65
34.59 34.03 29.28 27.33 22.24 20.34 29.66 35.06 36.88 33.39 25.98 37.45 37.95 37.38 37.41 36.78 29.69 35.81 36.76 30.06 26.29 24.26 23.47 20.12 18.09 16.55 14.73 12.76 13.06 11.98 9.99 9.16 8.02 8.09 7.48 6.52 5.79 3.73 2.98 4.31 4.58 6.41 5.00 6.27
25.09 29.07 26.13 26.08 25.05 27.95 33.40 36.77 32.72 23.75 29.50 39.45 35.89 37.04 36.64 34.58 36.88 32.58 22.85 22.08 21.70 20.80 18.43 17.42 16.56 14.60 12.19 12.22 12.53 10.44 8.87 7.79 7.67 6.28 5.25 4.42 3.91 2.49 2.69 4.25 3.66 3.47 3.51 5.22
28.71 24.98 25.22 27.08 24.21 22.10 35.26 32.09 29.10 36.04 39.95 39.76 37.28 33.35 33.60 34.42 32.76 26.01 22.39 19.26 17.58 15.96 17.10 16.19 13.12 11.33 11.27 12.13 12.00 9.35 7.93 6.96 5.18 3.81 2.52 1.73 1.23 1.50 3.58 -0.39 1.12 2.31 2.57 2.36
28.90 32.33 30.71 30.11 28.79 33.47 33.66 36.90 39.61 40.42 38.90 39.48 34.40 32.78 34.62 32.10 28.93 24.46 20.34 17.49 16.64 16.37 15.33 15.01 11.89 10.01 9.95 11.05 11.67 8.12 6.03 5.50 2.79 0.43 -0.22 -0.09 1.53 2.22 1.02 -1.27 0.78 1.05 2.09 3.20
32.92 37.29 32.70 32.85 35.27 32.33 32.83 36.42 38.83 38.92 38.69 39.86 37.89 35.45 29.95 30.75 26.83 23.02 19.26 17.68 16.75 15.52 13.81 12.81 10.86 8.87 7.31 8.73 9.94 6.96 5.11 3.62 -1.86 -1.55 1.32 2.11 0.87 0.06 0.89 1.63 2.58 0.87 2.54 3.79
34.80 33.44 32.45 32.71 35.49 37.11 37.87 38.58 39.60 38.96 34.40 33.31 33.44 33.04 32.32 30.41 25.46 24.49 20.15 17.54 16.55 15.21 13.45 12.36 11.11 9.05 6.92 6.44 4.51 3.79 2.22 1.28 0.42 0.73 0.72 -0.54 -0.64 -2.80 -0.55 1.08 -0.38 3.18 6.04 10.09
36.02 34.58 32.24 31.78 36.67 36.81 37.81 40.47 40.87 39.21 38.65 38.53 34.78 29.15 29.76 30.67 28.75 23.75 20.81 18.91 16.83 14.20 13.15 11.89 10.78 8.14 5.62 3.88 1.70 -0.46 -0.76 -0.01 0.80 -0.25 -1.22 -3.23 -2.95 -3.19 -2.00 -2.89 -2.27 4.56 9.06 11.42

GFSCGP_sfc_wetblb_024.txt.gz
Wetbulb
46.69 45.28 43.17 45.54 46.35 45.46 42.32 41.15 41.55 44.90 41.79 41.45 42.48 42.10 44.23 46.38 46.31 44.93 45.75 47.25 46.75 44.63 45.75 45.12 42.86 41.36 39.51 39.70 39.31 39.33 39.01 39.56 39.30 38.52 38.15 37.45 37.75 38.15 37.60 37.65 36.55 35.91 35.65 34.49
43.83 41.76 46.53 45.65 43.51 42.13 42.00 41.43 42.05 43.96 39.54 39.19 40.96 39.52 42.39 43.86 44.87 45.59 46.46 47.09 47.40 45.67 44.46 43.73 42.31 39.59 38.14 38.17 38.32 38.39 38.55 38.98 38.76 38.61 37.95 37.81 37.37 37.36 37.18 36.96 36.07 35.37 34.36 33.90
42.18 44.29 42.03 42.49 41.75 40.09 41.13 40.83 42.15 39.81 39.22 38.68 36.74 37.77 39.59 42.73 43.02 44.58 45.07 46.41 47.20 45.91 44.21 42.35 39.89 38.69 38.25 37.67 37.73 37.93 38.07 38.51 38.22 37.67 36.64 35.65 35.48 35.74 35.02 35.73 35.88 35.18 33.74 33.30
42.81 43.85 41.94 41.11 41.08 41.87 39.24 42.46 40.58 38.49 36.93 36.44 37.43 33.79 41.02 42.78 42.29 42.61 46.02 47.37 45.37 44.39 43.43 42.57 39.78 38.99 38.37 38.51 38.92 37.86 37.95 37.46 37.47 37.10 35.37 34.79 34.86 34.79 35.70 34.79 34.84 33.75 33.40 32.62
41.66 38.98 38.76 39.49 41.40 42.04 40.88 37.97 37.77 36.60 36.28 33.00 37.46 32.66 38.88 36.38 38.00 41.81 44.54 46.89 45.83 45.25 43.24 42.19 40.21 39.68 39.06 38.41 38.00 37.78 37.37 36.72 36.47 36.05 35.82 35.24 34.43 34.71 34.82 33.52 32.22 32.43 32.35 31.94
41.65 40.44 40.71 42.21 36.80 38.31 37.45 37.18 35.75 33.60 34.48 29.86 37.47 35.60 37.28 37.69 39.66 42.32 44.29 46.01 44.73 42.79 42.69 43.25 42.05 39.95 38.54 38.03 37.42 38.18 36.76 35.86 36.07 35.74 35.49 34.90 34.01 33.44 32.27 31.75 30.92 31.06 30.92 30.82
39.82 39.37 38.92 39.14 38.32 37.68 37.66 37.71 34.27 33.72 31.26 31.62 34.29 31.28 36.28 40.32 41.88 42.74 44.94 46.75 43.48 43.13 41.77 41.03 39.11 37.23 37.23 36.24 36.29 36.76 36.07 35.00 35.48 35.34 34.87 34.16 33.65 32.72 31.24 30.78 30.03 29.11 29.15 29.48
36.56 35.90 36.32 39.53 41.32 40.97 36.50 38.89 35.35 28.93 30.01 32.95 30.73 28.83 37.70 41.96 43.79 44.17 41.82 42.72 40.76 40.46 40.12 39.72 39.07 37.91 36.60 35.48 35.65 35.73 35.58 35.36 35.14 34.64 33.79 33.61 32.85 31.62 30.72 29.78 29.00 28.28 28.04 28.30
34.77 36.33 35.16 34.86 36.47 38.75 34.84 34.22 38.28 34.22 25.42 27.01 35.57 39.53 40.55 39.88 39.73 40.09 39.47 41.00 42.28 41.36 40.25 38.88 38.21 37.79 37.02 35.27 35.89 36.23 35.71 35.46 34.78 33.91 33.63 32.04 31.10 29.69 28.94 28.43 27.86 27.44 27.61 26.66
39.89 34.72 35.47 32.25 35.21 33.95 34.91 36.41 31.62 33.63 28.12 27.50 34.02 35.44 37.00 38.48 38.56 40.11 39.56 40.92 44.06 42.03 40.88 39.17 37.85 36.96 36.79 36.82 36.40 36.49 36.60 35.24 34.59 33.73 32.57 30.87 29.59 28.71 27.90 27.09 26.19 26.25 26.35 25.92
39.33 38.62 34.85 32.78 32.03 35.70 30.57 32.65 32.21 31.86 30.79 29.54 28.03 33.57 40.38 39.80 40.15 39.69 41.27 43.69 44.79 42.61 41.89 40.26 38.04 37.08 36.76 36.61 35.85 35.75 35.72 34.96 33.13 31.93 30.44 28.89 27.72 26.70 26.22 25.46 25.43 25.03 24.89 24.66
39.66 37.60 35.41 37.14 32.45 32.47 34.56 35.62 35.70 31.70 29.55 31.32 31.79 32.21 39.88 41.40 41.71 41.05 41.33 41.18 42.55 41.94 42.35 41.12 38.27 36.36 35.24 34.95 34.95 34.24 34.60 33.29 31.73 30.19 28.59 27.03 26.10 25.14 24.43 24.34 24.20 24.07 23.27 23.66
36.97 33.57 31.19 33.50 29.66 30.16 31.62 31.88 34.90 36.05 35.15 30.74 29.19 31.78 41.34 42.12 42.08 42.07 41.41 42.93 41.08 41.76 41.30 39.28 36.97 34.73 33.90 33.93 33.60 33.66 33.06 31.41 29.33 27.47 26.27 24.48 24.31 23.67 23.29 23.00 22.76 22.42 21.94 21.75
40.71 34.92 34.24 30.64 34.69 34.61 30.61 31.06 32.72 34.00 30.62 31.47 32.27 34.75 39.03 40.86 40.92 42.06 42.80 41.03 40.70 41.18 39.31 40.74 37.75 35.09 34.22 33.31 32.52 31.80 30.76 29.09 26.44 24.78 23.98 23.61 23.22 22.64 22.25 21.62 20.95 20.44 20.45 19.67
37.42 31.96 34.49 36.01 36.88 36.01 34.66 34.77 34.49 30.31 32.50 30.68 34.28 34.99 38.73 40.81 41.51 42.74 43.57 43.39 42.69 42.65 39.24 39.49 37.42 35.05 33.60 32.33 30.62 29.79 28.06 25.93 24.13 23.11 22.62 22.44 21.92 20.99 20.09 19.42 19.36 19.21 18.76 18.45
35.77 30.79 32.96 30.05 33.97 34.04 32.06 34.96 35.24 34.99 34.78 34.88 33.83 32.53 39.94 41.21 42.26 41.62 41.70 41.98 41.31 41.40 42.47 40.44 36.52 33.64 31.48 30.66 29.09 26.61 25.15 23.17 22.48 21.80 20.95 20.27 19.20 18.13 17.36 17.20 16.83 16.35 16.25 16.79
32.49 31.63 30.50 27.29 32.96 31.67 27.15 31.78 33.50 34.75 37.05 36.19 31.47 36.89 41.37 40.58 40.75 41.10 41.94 42.20 41.16 40.98 41.34 40.46 34.62 31.99 30.30 28.79 26.85 24.92 22.47 21.03 20.39 19.74 18.89 17.46 16.97 15.58 15.47 14.80 14.10 13.94 14.46 14.93
32.98 31.58 31.27 27.19 29.64 19.90 32.19 38.19 37.25 35.04 36.93 38.44 38.04 39.06 40.23 40.65 41.77 42.07 43.44 42.02 41.43 41.65 41.64 38.74 35.17 32.97 30.17 28.65 26.26 23.29 19.84 18.89 18.69 17.98 16.28 15.74 14.60 13.75 13.20 12.25 12.20 12.87 13.74 13.67
37.66 33.27 28.12 24.90 25.52 29.88 31.45 35.03 33.80 32.97 33.03 38.81 37.65 38.71 39.88 41.06 40.46 40.59 43.07 43.22 43.03 43.64 43.61 41.32 34.73 31.37 28.64 25.63 22.71 19.11 17.80 17.95 16.84 15.74 15.15 14.15 12.96 11.46 10.69 9.04 10.75 11.96 12.62 12.24
35.78 35.39 29.67 27.35 23.06 21.86 32.72 37.65 39.41 37.95 27.39 39.69 39.41 38.67 38.60 39.01 34.13 39.07 44.28 41.49 40.36 35.08 31.51 29.40 28.35 25.30 23.16 20.54 19.99 18.25 16.50 15.63 15.04 15.27 14.12 13.16 11.54 9.52 8.58 9.67 9.42 11.44 10.47 10.55
28.80 30.07 26.45 26.88 25.88 29.86 37.02 38.11 36.95 26.68 31.24 40.63 40.21 40.08 39.11 36.72 39.30 42.79 34.82 32.87 30.05 27.96 25.38 24.26 22.48 20.72 19.68 18.90 19.02 17.59 16.11 15.32 15.68 14.16 12.03 10.32 9.73 8.47 8.54 8.81 9.39 8.64 8.67 9.56
30.66 28.12 27.18 27.59 24.89 23.15 39.27 38.31 32.40 38.95 42.59 42.83 42.46 39.17 36.72 38.27 38.58 38.65 31.72 27.97 25.48 23.04 22.27 21.04 19.55 17.98 17.48 18.58 18.63 16.22 15.46 14.59 12.28 10.71 9.54 8.14 7.13 8.76 9.03 5.35 7.10 7.34 7.92 7.80
29.93 35.01 32.55 32.61 32.11 39.07 41.51 40.20 42.51 42.58 41.90 42.29 41.85 41.03 39.54 38.85 37.36 35.93 28.78 24.39 24.17 22.35 21.09 19.93 17.19 15.50 16.14 17.69 18.21 15.38 12.68 11.07 9.21 7.64 6.32 6.20 6.81 7.15 6.42 6.18 6.99 9.30 8.18 8.64
37.12 39.79 34.83 34.87 38.16 38.85 40.12 41.86 42.83 43.52 42.13 42.75 42.82 40.91 37.52 38.60 38.23 33.18 29.16 24.84 20.61 20.30 18.29 17.88 15.55 14.36 13.76 15.47 15.98 13.41 10.77 9.14 6.42 6.40 6.58 6.41 6.40 6.69 6.34 8.42 8.65 8.37 8.94 8.55
31.01 32.73 31.84 31.25 33.74 37.59 39.67 41.39 39.95 38.63 39.09 37.35 38.95 37.51 38.68 38.69 35.85 35.24 31.19 26.15 22.47 19.12 17.68 16.74 15.94 14.62 12.97 12.83 9.64 9.64 8.18 6.40 6.56 7.36 6.99 6.50 6.30 6.42 6.42 6.87 7.44 8.22 10.19 11.32
32.27 31.10 29.02 28.47 35.88 36.19 37.67 41.09 42.18 40.48 40.55 41.11 39.87 39.19 38.66 36.21 38.21 37.66 33.90 27.88 23.06 19.15 16.69 15.52 16.01 14.23 11.35 9.49 7.54 7.11 6.43 7.21 6.97 5.55 4.88 5.18 5.36 5.24 5.32 5.84 6.59 6.75 8.55 11.00

GFSCGP_sfc_wetblb_027.txt.gz
Wetbulb
48.90 45.21 43.13 46.01 47.55 46.70 45.56 43.83 42.57 44.86 46.92 44.56 44.26 44.41 46.51 49.03 49.05 48.52 49.07 49.18 49.87 50.07 51.97 50.51 49.27 48.52 46.81 45.89 44.33 42.88 42.02 42.25 41.64 40.90 39.90 39.81 38.89 39.77 39.62 39.79 38.66 37.94 37.61 36.71
45.27 42.05 47.13 47.81 47.29 45.87 45.18 42.68 42.20 45.28 46.66 42.81 43.45 42.84 46.44 47.55 47.93 48.54 48.27 48.58 49.13 50.05 50.71 50.00 48.53 47.49 45.13 43.88 43.18 42.42 41.97 41.85 41.21 41.46 41.41 40.99 40.46 40.79 40.07 39.53 38.10 37.59 36.77 36.14
42.95 45.25 45.75 45.10 44.91 42.67 42.86 41.54 42.35 42.15 45.00 41.87 40.82 39.65 42.93 46.01 46.92 47.62 48.14 48.75 49.15 49.04 50.38 49.14 47.37 45.68 44.72 43.06 42.51 42.05 41.96 41.79 41.27 41.46 41.11 39.37 38.92 37.70 36.59 36.96 37.07 36.94 36.29 35.51
44.12 46.71 44.83 44.00 42.05 43.61 39.64 45.03 44.28 42.62 40.96 37.26 41.41 34.52 42.56 44.72 45.62 46.36 47.20 48.31 49.08 49.87 49.99 49.28 46.59 45.19 44.08 42.86 43.40 42.32 41.81 41.46 41.40 41.15 39.01 37.18 36.09 35.52 37.54 38.90 37.94 36.44 36.07 35.12
42.24 43.61 41.44 40.90 42.39 44.68 41.62 41.27 41.44 41.70 39.76 39.43 39.27 36.49 40.05 42.65 41.47 43.25 45.46 47.55 49.25 50.38 48.43 46.91 45.86 45.01 44.30 43.24 42.91 41.71 41.19 40.85 41.06 40.43 38.76 37.51 36.94 38.43 39.06 36.58 35.26 35.07 35.24 34.84
43.08 43.36 43.38 44.02 40.62 41.81 41.50 40.22 39.71 38.76 38.54 32.28 38.75 38.13 38.27 41.48 41.32 43.42 44.65 45.79 48.16 47.35 46.89 46.45 46.63 45.27 44.14 43.69 42.68 41.24 39.90 39.56 40.21 39.22 38.60 37.85 37.18 37.10 36.05 35.04 34.10 34.21 34.47 34.10
42.28 42.03 43.70 41.96 40.10 39.92 39.93 39.22 34.97 34.40 33.30 31.93 41.22 37.97 39.99 43.86 44.43 44.68 44.84 46.28 47.87 46.92 46.31 45.76 44.81 43.17 43.03 42.33 40.96 39.95 39.38 38.60 38.98 38.18 37.91 37.61 37.46 37.26 35.80 34.82 33.98 33.28 32.62 32.45
38.62 36.54 40.94 41.12 41.89 42.29 37.84 40.20 35.93 29.86 30.91 34.24 38.09 33.91 39.21 45.42 46.20 46.00 46.07 46.80 46.73 45.08 45.76 45.32 45.06 43.92 42.34 41.44 40.33 39.51 38.93 38.52 38.43 37.74 37.25 37.19 36.87 35.87 34.98 34.33 33.53 32.43 31.69 31.70
37.40 37.76 38.02 39.46 39.54 42.64 37.83 34.26 41.02 36.43 34.73 31.89 36.15 40.06 44.71 44.54 43.99 44.30 44.36 43.94 44.73 45.23 45.24 44.57 44.81 44.01 42.47 41.21 40.12 39.13 38.50 38.48 38.31 37.36 37.06 36.32 35.59 34.42 33.15 32.84 32.48 31.41 31.09 30.13
42.02 36.09 40.08 34.44 37.64 37.68 38.38 39.51 34.07 35.14 28.55 27.58 34.44 37.10 38.73 42.54 42.30 43.19 42.91 43.22 45.24 46.94 46.41 45.05 44.38 43.22 42.75 41.86 40.61 39.62 39.34 38.30 38.02 37.19 36.35 35.02 34.02 33.49 32.84 31.99 30.09 29.68 29.61 29.11
42.47 39.36 37.15 35.04 34.08 37.08 32.52 33.79 34.06 34.77 35.91 30.74 29.19 34.58 42.47 41.96 44.04 43.71 44.07 43.59 45.03 47.90 45.80 45.30 43.97 43.19 42.44 41.99 40.33 39.40 38.77 37.75 37.20 36.23 35.31 33.64 32.10 31.97 31.24 29.58 29.11 28.75 28.45 27.41
41.03 38.41 34.43 38.02 41.12 36.70 38.04 38.55 37.89 31.84 30.97 33.28 32.86 33.06 42.30 44.20 44.49 45.34 43.83 44.54 46.60 46.73 47.03 47.03 45.86 43.45 41.39 40.53 40.03 39.02 38.31 37.21 36.76 35.79 34.08 32.41 31.01 29.75 28.00 27.31 27.48 27.55 26.07 26.14
38.77 33.81 30.55 33.41 35.22 33.56 33.68 36.63 36.94 38.29 36.37 31.78 29.97 32.57 42.76 43.78 44.35 43.26 42.89 44.55 45.09 45.31 45.84 46.85 45.20 42.76 41.17 40.04 39.19 38.32 37.49 36.40 35.90 34.68 32.71 30.32 28.67 26.90 26.48 26.33 26.27 25.47 24.63 24.29
41.04 35.55 32.74 29.82 34.41 37.79 34.12 35.44 36.51 35.19 31.53 31.55 32.55 35.56 39.95 41.83 42.67 44.29 44.77 45.28 45.63 45.99 45.07 45.41 44.55 42.91 41.26 39.70 38.57 37.26 36.21 35.95 34.49 32.38 29.83 27.44 26.49 25.84 25.78 25.38 24.47 23.68 23.33 22.42
38.33 31.37 33.96 35.17 36.93 37.06 35.38 35.43 34.69 32.25 34.28 31.37 34.47 35.26 39.59 42.03 43.00 44.22 44.90 44.65 44.12 44.19 44.24 44.43 42.52 43.88 41.65 38.59 36.42 35.48 35.30 34.27 32.01 28.90 27.20 25.80 25.72 24.77 24.14 22.98 22.34 22.18 21.64 21.14
37.44 30.51 32.97 30.60 34.90 34.91 32.32 34.92 35.74 35.35 35.54 35.64 35.12 33.92 41.29 42.65 43.53 42.97 43.33 43.79 43.14 43.36 44.15 43.29 42.81 41.94 37.78 35.90 35.10 33.10 32.99 31.92 28.88 26.69 25.41 24.88 23.43 22.21 21.63 21.39 20.80 20.16 19.27 19.09
33.06 31.69 30.00 26.62 33.06 32.52 27.57 32.24 33.90 35.08 37.32 37.10 32.67 38.00 42.90 42.68 42.61 42.80 43.78 44.48 44.05 43.98 43.39 42.25 42.62 41.41 37.39 35.37 32.97 31.74 31.41 28.90 25.59 24.92 23.64 21.61 21.16 19.67 19.68 19.37 18.23 17.19 17.09 17.88
32.74 31.41 31.63 28.08 30.37 21.00 32.55 39.24 38.42 35.89 37.86 39.78 39.96 41.04 42.54 42.74 43.94 44.17 45.28 44.31 43.43 42.49 42.10 42.74 43.00 43.04 38.16 36.12 33.32 31.36 28.30 25.04 23.65 22.42 20.49 20.11 19.37 18.26 17.92 16.48 15.81 16.22 16.54 16.16
37.77 33.81 29.12 26.16 26.08 30.95 33.81 37.37 36.27 34.54 34.42 39.97 39.25 40.68 41.91 42.95 41.82 41.87 44.83 44.50 44.12 44.42 43.76 39.58 39.49 39.33 36.71 32.85 30.72 27.07 23.70 22.78 21.55 20.37 19.42 18.59 17.84 16.52 15.41 14.28 14.70 15.63 15.57 15.57
36.60 35.94 30.93 28.62 24.37 22.56 33.64 39.32 42.16 40.90 28.85 40.91 41.02 40.39 40.38 40.63 34.79 39.07 44.09 42.52 41.92 35.41 34.90 33.67 32.94 32.12 30.69 28.99 26.33 22.45 21.02 20.59 20.09 20.05 18.66 17.77 16.80 15.14 13.66 13.83 14.25 15.03 14.37 13.75
30.18 30.21 27.37 27.58 26.18 29.80 37.74 41.03 41.03 28.94 31.92 41.02 41.11 40.97 40.88 38.72 41.35 43.60 38.85 37.31 36.18 34.68 31.32 31.09 28.92 28.11 27.88 24.52 22.50 20.53 20.11 19.56 20.89 19.22 17.05 15.52 14.52 14.02 13.85 13.51 13.79 12.55 12.01 12.60
31.96 28.65 27.44 28.39 25.77 23.68 40.24 39.26 33.10 39.38 42.99 43.05 42.98 42.87 40.88 41.12 41.56 41.86 42.37 37.07 33.26 30.90 28.03 27.55 24.90 23.65 22.04 22.25 21.50 19.77 18.33 19.68 17.06 15.00 13.56 12.81 12.39 12.78 12.16 10.63 10.53 10.58 10.69 9.81
31.00 35.77 33.07 33.06 32.45 39.29 41.44 40.35 43.23 43.89 42.20 42.61 42.36 42.93 42.36 39.19 39.47 39.44 38.37 35.08 32.32 30.86 26.59 24.95 23.20 20.57 19.87 20.85 21.87 18.84 18.70 15.05 13.27 12.41 11.40 10.54 10.65 12.27 10.70 8.75 9.92 10.37 10.13 10.87
28.87 32.48 27.52 27.25 33.64 32.62 34.75 37.70 40.36 42.56 41.44 41.04 40.06 39.15 39.29 38.53 38.49 36.32 35.72 34.48 30.93 27.46 24.97 22.74 20.16 18.32 17.49 19.38 20.78 20.34 15.02 13.50 11.83 10.40 9.89 9.82 9.36 9.06 9.29 10.61 10.76 11.20 11.07 10.72
27.53 28.85 26.87 27.54 31.76 33.64 35.20 37.04 38.59 39.03 39.87 39.73 40.58 40.49 40.57 40.75 39.41 38.58 37.99 36.74 32.95 28.52 24.11 21.34 19.34 18.27 17.24 18.60 18.59 14.42 12.80 11.88 10.81 10.19 9.66 9.52 9.78 9.48 9.03 10.77 10.27 11.23 11.75 12.33
26.38 24.48 22.91 23.13 30.86 31.21 32.67 34.65 34.79 34.13 35.08 37.06 37.29 37.74 38.76 38.62 38.63 38.84 37.47 37.31 35.76 27.69 23.39 20.28 19.29 18.11 16.67 16.47 12.41 11.38 11.37 11.94 10.80 9.17 8.95 8.83 8.22 9.34 9.24 8.29 6.50 9.81 11.50 11.92

GFSCGP_sfc_wetblb_030.txt.gz
Wetbulb
45.27 40.25 38.19 41.21 43.34 43.46 42.40 40.60 39.28 42.50 44.55 41.03 40.18 40.85 43.19 45.67 44.02 43.88 45.77 46.55 45.69 46.34 47.38 47.40 47.00 45.08 44.04 42.84 41.47 40.39 39.04 38.39 39.17 37.14 35.70 34.33 34.85 34.79 34.36 35.04 35.05 34.51 34.30 34.44
41.72 38.55 43.79 45.12 44.49 42.27 40.49 38.64 39.01 42.24 43.23 40.90 39.69 39.47 42.76 43.58 44.76 45.46 45.74 45.91 46.47 45.07 45.08 45.10 44.99 44.18 43.44 42.26 41.32 39.88 39.29 38.56 38.91 38.19 37.20 35.35 35.43 34.49 34.61 34.87 34.03 34.19 33.96 33.62
39.40 42.02 45.86 43.72 41.98 40.44 40.27 37.87 38.55 38.40 40.97 37.87 35.74 34.01 38.34 41.78 44.31 45.60 46.11 46.37 46.56 44.49 44.04 43.56 43.88 43.50 41.64 41.08 40.65 39.81 39.52 38.92 38.71 37.61 37.11 35.37 34.50 33.13 31.71 32.02 31.86 32.89 33.34 32.76
41.09 44.54 43.22 41.21 40.12 40.71 36.29 41.21 40.34 39.22 35.44 31.67 36.95 28.01 36.59 39.61 40.88 42.02 43.33 43.27 44.51 42.92 43.93 44.33 43.09 42.26 41.40 41.24 40.80 39.94 39.47 38.89 38.61 37.63 36.94 34.17 33.22 29.77 30.82 32.85 32.52 32.30 32.34 31.54
38.87 39.02 38.68 38.95 40.22 41.69 38.50 39.44 37.16 36.33 34.36 33.03 33.62 30.07 34.14 39.70 38.09 40.60 41.98 43.12 44.92 43.07 43.55 42.87 42.96 42.76 41.81 40.54 39.32 39.38 38.80 38.35 38.24 37.34 36.69 34.13 31.62 31.53 32.47 31.96 31.64 30.72 30.66 30.94
40.44 41.44 39.95 39.91 39.10 39.66 39.33 36.47 35.44 33.58 31.86 25.24 32.61 32.69 32.57 35.39 38.30 39.34 41.29 42.42 43.16 42.49 42.18 42.36 42.00 41.49 40.65 39.82 38.34 38.48 37.85 37.60 37.27 37.06 36.03 34.36 32.77 32.31 31.00 29.71 29.43 28.76 29.01 29.15
37.37 38.85 39.87 40.07 36.11 36.50 36.09 33.59 26.65 24.37 23.02 25.23 34.96 31.65 36.30 37.91 39.43 40.24 40.59 42.29 41.79 42.15 41.11 40.17 39.95 39.74 39.74 38.55 38.16 37.76 37.21 36.71 37.17 36.60 35.72 34.77 33.63 32.54 31.52 30.85 30.11 28.45 27.56 26.81
33.40 32.34 38.40 38.68 38.57 36.64 33.67 34.91 27.20 20.26 20.96 29.95 32.47 26.96 34.06 41.45 42.72 41.65 41.94 42.70 41.37 40.68 40.93 40.30 39.93 39.50 38.95 38.29 37.75 37.66 36.85 36.31 36.38 35.93 35.39 34.70 33.46 34.08 32.82 31.39 30.53 28.49 27.16 27.13
33.82 34.04 36.06 37.22 37.23 39.68 34.11 30.09 35.81 29.63 23.02 22.49 31.05 33.75 37.67 39.40 40.00 40.52 41.45 40.05 39.34 39.30 39.97 40.23 40.04 38.96 37.98 38.17 37.69 37.45 36.41 36.25 36.00 35.50 34.84 34.13 33.63 32.59 31.64 29.20 28.10 27.08 26.43 27.30
38.43 33.13 35.83 33.18 35.16 34.79 33.58 35.87 28.79 29.38 18.26 16.99 30.11 28.80 33.25 36.96 39.91 39.15 38.12 38.62 39.27 40.08 39.63 39.44 39.69 39.25 38.57 38.74 38.22 37.26 36.61 35.63 35.76 34.91 34.40 34.09 33.03 31.38 29.05 27.87 26.63 25.91 25.42 24.90
39.16 36.34 32.14 33.01 30.09 31.80 29.35 29.48 30.89 32.05 29.72 23.18 24.67 29.75 34.63 38.59 39.76 39.14 38.89 39.69 39.71 40.66 40.55 40.14 39.70 38.99 39.08 38.10 37.50 36.76 35.77 34.89 34.77 33.90 33.78 32.68 31.17 29.07 27.84 26.92 25.22 24.50 24.87 24.23
38.78 35.75 30.71 34.22 36.75 35.19 35.57 34.77 33.71 28.76 27.40 26.95 28.05 31.68 38.87 38.14 38.84 39.91 39.38 40.63 40.75 41.16 41.15 40.23 39.91 38.19 37.38 37.82 37.07 36.17 35.42 34.60 34.34 34.31 32.83 31.45 29.04 27.70 26.46 25.17 23.93 24.13 23.13 23.31
37.50 32.00 27.06 29.49 33.60 31.47 30.96 33.42 36.21 35.83 32.82 30.03 26.87 30.23 40.63 42.58 41.51 39.16 38.67 38.73 39.93 40.44 40.28 40.48 39.74 38.10 37.86 37.22 36.44 35.93 35.26 34.57 33.34 33.09 31.58 29.47 28.05 27.16 25.37 24.07 23.35 23.12 22.12 21.77
40.86 33.87 30.56 26.37 30.57 34.73 31.88 33.14 34.12 33.54 28.97 29.68 30.30 32.67 37.91 40.02 40.59 42.05 43.03 42.84 39.84 40.32 39.82 39.34 38.90 38.07 37.81 36.63 36.48 35.91 35.15 35.04 33.07 32.35 30.56 28.72 27.05 25.96 24.12 23.32 22.45 22.06 21.44 20.57
36.26 30.24 32.09 33.23 34.60 34.56 33.48 32.97 33.41 30.49 31.75 28.31 31.89 32.40 36.72 39.50 40.49 41.99 43.23 42.92 40.83 41.71 42.14 41.63 38.49 38.20 37.20 35.23 34.46 34.45 34.42 32.86 32.11 31.05 29.53 27.61 25.48 23.78 22.67 21.96 21.35 20.93 20.57 20.45
36.89 29.89 31.33 29.35 32.09 31.92 29.87 32.34 33.26 32.90 33.21 33.51 33.36 31.75 39.23 41.04 41.96 41.14 41.50 42.06 41.40 42.27 42.45 39.71 38.33 36.34 34.89 33.84 34.75 32.36 32.04 31.08 30.97 29.52 27.79 25.22 22.91 22.46 21.73 21.06 20.64 20.44 20.47 20.30
32.95 31.35 29.37 25.91 30.62 30.24 26.62 30.55 31.54 32.88 35.13 34.47 29.94 35.27 40.22 39.60 40.33 41.03 41.99 42.64 42.88 42.32 42.01 37.77 36.80 35.75 34.27 33.66 32.51 30.64 29.27 27.73 27.98 26.23 24.35 22.78 21.66 20.59 20.31 20.32 19.96 19.60 18.78 18.83
32.36 31.21 31.61 28.82 30.03 21.04 30.73 37.20 36.21 33.90 35.25 36.82 36.81 38.34 40.32 40.63 42.11 42.73 43.54 42.99 41.45 41.39 39.55 36.91 35.19 36.10 36.58 32.75 29.28 27.80 27.55 26.11 24.90 23.59 22.00 20.85 20.10 19.87 19.52 18.86 18.10 17.67 17.64 17.36
39.16 35.21 30.32 26.69 26.15 29.78 31.31 34.67 33.53 32.52 32.29 37.99 37.18 38.83 40.10 41.44 41.50 41.37 44.10 44.33 42.72 43.24 39.76 36.79 35.94 35.04 32.56 28.59 26.99 26.56 24.84 24.00 23.08 21.92 20.32 19.88 19.19 17.92 17.66 16.80 16.15 16.64 16.78 16.69
37.02 36.94 32.53 30.25 24.94 22.27 31.81 37.38 40.48 38.09 27.75 38.94 39.48 38.83 39.01 39.64 33.73 38.09 43.21 39.17 38.64 39.29 36.72 34.66 31.23 29.97 28.01 25.82 25.98 24.33 21.89 21.26 20.64 20.51 20.12 19.80 19.65 18.02 16.28 16.47 15.93 16.84 17.05 16.08
30.12 30.93 28.54 28.90 27.03 29.85 35.27 37.49 36.63 26.25 30.08 39.98 40.76 40.27 39.58 35.94 38.70 40.71 36.99 37.12 37.17 36.25 33.09 29.60 27.82 27.68 26.28 24.52 23.88 22.31 20.83 20.37 21.83 20.73 19.07 17.96 18.06 17.47 16.83 16.26 16.19 15.37 14.65 14.78
29.45 28.30 27.57 28.73 26.04 23.84 34.17 35.19 30.70 31.94 36.30 37.71 37.16 36.74 36.31 36.78 36.49 35.84 36.15 35.19 33.99 32.27 27.97 27.33 26.06 24.83 23.45 23.29 22.78 20.97 19.76 21.36 20.69 18.80 16.84 16.18 16.28 16.10 15.78 14.53 14.21 13.38 12.94 11.60
23.14 25.21 22.04 24.06 24.17 31.10 32.59 31.51 34.30 35.30 35.76 33.69 33.37 34.29 35.51 35.08 35.30 35.48 34.86 34.79 33.24 31.01 29.49 26.31 24.79 22.23 20.14 21.24 21.88 20.02 20.00 19.82 16.97 14.93 13.61 14.32 14.67 14.16 13.49 11.83 11.00 10.98 11.23 11.76
23.48 27.63 22.43 23.07 27.76 27.18 30.06 32.86 35.75 35.19 33.12 34.25 35.07 35.56 36.13 35.20 35.54 35.43 33.21 33.29 33.01 31.07 28.67 23.88 21.02 20.40 19.07 19.35 20.92 19.74 18.77 16.56 14.33 13.02 11.67 12.83 12.64 10.95 10.98 12.22 12.05 11.77 10.74 11.64
21.12 22.57 19.55 19.18 22.74 25.34 27.42 29.72 30.98 31.41 31.60 30.48 30.21 30.07 30.30 31.43 32.26 34.36 35.16 35.25 34.56 32.87 26.25 23.06 23.09 22.67 20.36 18.47 19.08 17.07 15.72 14.52 13.25 11.88 10.78 11.62 11.55 10.25 10.32 11.70 11.61 12.67 13.58 13.23
22.63 19.87 17.05 15.82 24.25 24.81 25.47 28.36 29.12 26.22 24.90 24.07 25.40 27.00 29.77 30.49 30.98 31.97 32.52 33.74 34.38 35.26 29.52 23.38 21.87 21.62 19.88 17.91 17.78 13.34 13.82 14.16 12.65 10.45 10.02 10.60 9.72 9.90 10.32 10.20 11.45 16.52 15.27 17.02

GFSCGP_sfc_wetblb_033.txt.gz
Wetbulb
41.81 36.09 34.82 38.76 39.59 39.53 36.83 35.71 34.13 37.99 41.61 39.08 38.39 39.58 41.45 43.95 40.32 41.97 43.68 43.85 42.90 43.68 47.38 44.42 45.56 45.18 44.44 43.13 40.57 39.44 38.65 38.41 38.85 37.29 35.90 34.71 35.20 33.73 32.56 33.15 34.10 33.45 33.46 33.28
37.95 35.18 40.51 41.22 40.45 39.41 37.94 36.77 36.71 39.69 41.47 38.65 37.46 37.94 40.63 42.33 43.49 41.89 43.78 44.31 45.03 45.56 42.93 43.68 42.53 43.35 43.42 41.38 40.11 39.01 38.78 38.38 39.09 38.64 38.05 34.40 33.37 33.28 32.94 33.30 33.02 33.13 32.59 32.32
37.42 38.92 43.08 41.59 39.40 38.11 38.34 36.10 36.83 36.06 38.04 36.87 35.09 33.22 36.27 40.61 43.09 43.92 44.31 45.37 45.85 45.74 43.40 42.45 41.00 42.32 42.17 40.52 39.51 39.02 38.82 38.14 39.02 37.74 36.04 33.70 33.88 32.01 30.99 31.11 30.99 31.44 32.42 31.74
37.45 42.02 40.72 38.33 37.96 39.80 35.77 38.95 38.28 36.60 32.90 31.50 34.47 29.86 33.69 37.62 39.59 41.30 43.33 43.91 44.36 44.62 41.20 41.70 41.02 40.98 41.19 40.90 40.39 39.63 38.78 37.76 37.95 36.79 36.07 35.40 33.37 33.08 33.53 33.80 31.87 30.61 31.67 30.76
36.66 36.14 36.32 37.05 39.02 39.12 38.01 37.97 37.16 34.33 31.34 30.28 31.47 28.40 31.61 37.15 35.85 38.62 41.97 43.21 45.20 43.85 40.92 39.94 41.20 42.44 41.75 40.91 39.61 38.87 38.07 37.34 37.56 36.31 36.89 35.95 33.98 34.07 30.16 29.81 30.03 31.07 29.86 30.01
37.40 38.51 38.51 38.36 37.24 38.41 38.15 35.46 33.54 31.36 29.57 25.72 30.22 31.32 32.77 31.95 38.00 38.03 41.95 42.14 43.52 41.74 41.50 40.81 41.71 41.37 40.02 38.27 38.80 37.63 36.94 36.89 37.03 36.39 36.40 35.58 33.91 31.33 29.97 30.44 30.34 30.19 29.87 28.87
34.10 36.43 39.32 39.36 35.24 35.56 36.09 33.71 25.21 22.51 21.27 24.44 32.72 29.36 35.58 37.27 38.49 40.46 41.77 42.79 43.50 40.72 40.22 39.04 37.74 38.40 37.57 36.70 37.30 37.43 36.71 36.26 36.69 36.15 35.61 35.26 34.60 32.81 32.09 30.76 31.12 29.58 28.43 27.79
29.67 30.90 35.06 38.05 38.68 35.23 33.55 35.72 27.54 19.81 20.55 28.37 28.10 25.09 32.65 40.39 42.99 40.75 41.08 42.28 39.68 39.56 39.54 38.99 39.32 38.76 37.65 37.58 36.15 37.21 36.35 36.46 35.79 35.89 35.61 35.18 34.39 33.49 33.18 31.45 31.24 30.21 29.92 29.13
30.47 30.95 34.81 34.91 35.84 38.93 32.84 30.12 36.46 29.58 23.14 20.72 31.99 32.58 36.54 37.67 38.33 38.93 39.77 38.69 38.54 38.65 38.23 38.54 37.89 37.17 36.48 36.13 36.29 36.64 36.21 36.33 35.17 35.78 35.83 34.79 33.69 33.74 32.84 31.31 30.27 30.24 28.53 27.60
36.15 31.59 33.61 32.45 33.65 34.37 32.78 34.27 28.66 29.39 21.73 18.12 28.59 26.75 32.82 34.25 39.18 40.48 37.72 37.00 37.80 38.02 38.30 38.78 38.18 37.83 37.26 37.06 37.18 36.44 36.59 35.89 35.53 35.07 35.52 34.72 33.18 33.36 32.80 30.29 28.99 27.54 26.88 25.88
35.33 34.47 32.42 30.66 30.00 30.98 28.89 29.26 30.02 30.80 29.01 26.35 25.03 29.97 35.24 35.61 37.18 38.82 38.62 37.84 37.33 38.05 38.49 38.71 38.89 37.65 37.51 36.99 36.13 35.88 34.96 34.80 34.69 33.80 34.23 34.00 32.54 31.46 29.32 29.55 28.93 27.48 26.25 25.07
36.85 34.09 28.81 31.95 34.15 33.84 34.27 34.28 35.22 29.57 28.40 25.07 27.37 30.40 38.28 39.81 38.96 38.29 36.76 38.64 39.02 39.45 40.37 39.70 38.94 37.04 37.03 37.09 36.36 35.81 35.79 34.67 34.64 34.43 33.07 32.41 30.52 28.42 28.44 28.51 26.89 25.60 25.31 24.19
37.77 31.71 27.09 27.88 32.04 29.17 30.57 31.59 34.85 34.04 30.96 28.67 25.39 29.34 39.88 41.44 38.79 38.65 37.55 38.01 39.08 39.56 40.42 39.20 37.81 36.81 37.83 37.59 36.27 35.97 35.52 34.81 34.21 33.38 31.25 30.69 28.85 28.20 28.00 26.68 25.05 24.99 23.73 23.08
41.47 33.52 31.46 28.65 31.53 33.54 30.40 32.63 32.94 32.11 27.90 28.60 29.46 32.06 37.33 39.76 40.69 42.32 43.02 40.53 40.64 39.92 39.02 39.12 38.15 36.82 36.41 36.62 36.76 36.21 35.67 35.13 33.06 32.18 30.77 29.64 28.89 28.62 27.29 24.83 24.25 23.82 23.23 21.73
38.58 30.60 32.53 33.76 35.37 34.98 34.16 33.55 33.80 32.05 32.39 27.73 29.94 30.64 35.52 38.57 39.78 41.24 42.56 42.41 40.87 40.59 39.69 39.40 38.69 38.22 38.14 36.66 34.94 34.60 34.80 32.50 31.73 31.10 30.28 29.49 28.74 27.70 24.30 23.51 23.58 22.30 21.90 21.41
37.06 31.35 33.45 30.86 33.08 33.29 31.58 33.39 33.83 33.18 32.90 32.90 33.70 32.68 39.37 40.76 41.78 41.23 41.70 41.89 41.09 41.79 42.38 41.69 39.93 38.34 36.17 33.91 35.35 32.95 32.62 31.14 30.82 30.83 29.84 28.72 26.03 23.99 23.42 23.52 22.09 21.62 21.10 20.32
35.11 31.65 30.92 27.39 31.48 31.39 27.31 31.64 32.73 33.61 35.26 34.32 29.28 34.56 39.23 38.78 39.91 40.71 41.69 42.20 41.64 42.14 42.17 39.38 39.71 39.18 36.86 35.30 33.18 31.51 32.18 29.73 29.54 29.74 28.71 25.88 24.37 23.06 22.79 22.10 20.96 20.34 19.81 20.05
32.85 31.63 31.52 28.36 29.75 21.31 30.62 36.75 36.04 34.10 35.15 36.41 36.07 37.74 39.67 40.33 41.70 42.24 42.84 41.99 42.11 42.22 39.99 39.07 37.53 38.08 35.83 33.90 32.64 29.83 27.55 27.51 28.39 26.88 25.06 23.15 22.61 21.62 20.89 20.18 19.88 19.63 19.30 19.18
36.85 33.40 29.64 26.50 26.38 29.81 31.25 32.92 32.38 31.01 31.20 37.04 36.21 38.07 39.45 40.79 40.92 40.39 42.69 40.87 42.25 43.07 43.31 41.69 39.49 36.53 35.14 33.99 30.37 27.49 25.65 26.39 25.63 24.32 22.93 21.59 21.32 20.05 19.39 18.98 18.67 18.68 18.60 18.06
35.90 36.23 31.55 29.44 25.13 22.17 31.81 36.14 39.37 38.14 28.58 30.53 33.31 31.07 31.40 34.09 31.73 35.45 37.44 37.97 36.89 37.46 37.19 35.79 34.12 33.32 32.55 29.94 26.21 25.53 23.72 23.94 24.15 24.11 22.98 21.31 21.28 20.07 18.96 19.16 18.24 18.49 18.53 18.18
26.05 29.00 27.10 27.48 26.08 29.51 29.61 31.72 33.62 26.48 23.12 30.27 32.71 32.16 32.08 30.26 33.08 35.97 36.35 36.08 37.11 33.45 30.65 30.52 29.07 29.54 29.25 25.01 24.44 23.73 22.27 22.84 24.24 22.63 20.92 19.94 20.19 19.63 19.57 18.23 19.22 18.14 17.67 17.35
17.82 17.86 18.93 21.61 24.10 22.29 29.26 29.87 21.92 24.92 28.33 29.48 31.58 30.39 31.22 32.65 33.77 34.95 35.37 34.65 35.02 35.10 35.01 30.14 27.66 26.63 25.03 23.90 23.57 22.22 21.75 22.16 20.31 20.11 19.16 18.72 18.53 19.08 17.61 17.30 17.30 17.20 16.43 14.78
16.42 22.63 16.11 16.42 18.60 24.99 30.21 25.74 28.57 29.54 30.53 31.63 30.89 31.33 30.94 29.94 29.99 31.28 32.95 33.37 34.95 35.74 35.49 32.66 25.98 25.56 23.15 21.82 22.58 21.55 21.42 20.74 18.85 18.05 17.78 16.37 16.85 16.81 16.94 15.84 15.32 14.44 14.45 12.55
17.72 21.54 17.08 15.68 21.73 21.87 24.09 27.23 29.32 28.48 27.32 29.29 30.07 28.63 27.91 26.61 28.01 28.68 29.73 30.86 31.85 33.65 33.97 32.88 25.01 25.15 24.76 21.89 22.91 24.04 21.21 20.55 19.07 17.53 15.84 14.37 14.90 14.55 15.17 16.20 15.11 13.68 12.59 12.33
18.51 20.11 14.50 16.16 20.50 22.46 24.68 26.59 25.97 24.79 26.39 25.28 23.89 23.66 23.89 25.26 25.97 26.96 27.35 28.20 29.95 31.17 32.34 30.72 31.62 30.88 29.70 25.57 23.02 22.02 21.11 19.19 17.34 15.86 14.72 14.08 14.49 13.92 13.19 14.02 13.38 12.95 14.79 15.62
21.23 18.49 15.59 14.10 22.45 19.97 20.59 23.10 23.03 18.76 17.99 18.10 18.87 19.65 20.64 20.33 20.30 21.88 22.41 24.70 26.60 27.87 29.98 30.56 29.22 28.07 28.65 23.76 23.00 21.77 20.66 19.05 17.82 15.05 13.93 13.93 13.40 13.29 12.96 12.37 13.21 18.19 17.88 20.53